Climatologie pour Saint-Brevin les Pins
Jour • Résumé pour mai 6, 2017 Système :  Métrique    Anglais   Mixte
« - 1 jour
+ 1 jour »
Jour Semaine Mois Année Personnalisé
  Maximum : Minimum : Moyenne :
Température sous abri : 17.7 °C 12.4 °C 14.1 °C
Point de rosée : 14.8 °C 11.2 °C 12.6 °C
Humidité : 98 % 80 % 91 %
Vitesse du vent : 20.9 km/h 0.0 km/h 8.3 km/h
Rafale : 30.6 km/h - -
Direction :- - West
Pression : 1017.2 hPa 1005.3 hPa -
Précipitations : 7.4 mm    
Historical Graphs
 
 
Tableau de données pour mai 6, 2017
Heure Tempé Pt rosée Pression Vent Vitesse Rafale Humidité Taux pluie (/hr) Soleil
00:00 13.3 °C 12.7 °C 1006.7 hPa ENE 3.2 km/h 6.4 km/h 96 % 2.8 mm 0 W/m2
00:10 13.3 °C 12.7 °C 1006.7 hPa East 3.2 km/h 8.0 km/h 96 % 3.3 mm 0 W/m2
00:15 13.3 °C 12.7 °C 1006.7 hPa ENE 1.6 km/h 8.0 km/h 96 % 2.8 mm 0 W/m2
00:20 13.3 °C 12.7 °C 1006.7 hPa Calm   4.8 km/h 96 % 3.0 mm 0 W/m2
00:25 13.2 °C 12.6 °C 1007.0 hPa ESE 1.6 km/h 6.4 km/h 96 % 3.0 mm 0 W/m2
00:30 13.2 °C 12.6 °C 1007.0 hPa South 4.8 km/h 6.4 km/h 96 % 3.3 mm 0 W/m2
00:35 13.2 °C 12.6 °C 1007.0 hPa Calm   6.4 km/h 96 % 3.3 mm 0 W/m2
00:40 13.2 °C 12.6 °C 1007.0 hPa Calm   4.8 km/h 96 % 3.0 mm 0 W/m2
00:45 13.2 °C 12.6 °C 1007.0 hPa Calm   4.8 km/h 96 % 3.0 mm 0 W/m2
00:50 13.2 °C 12.6 °C 1007.0 hPa Calm   4.8 km/h 96 % 3.0 mm 0 W/m2
00:55 13.2 °C 12.5 °C 1007.0 hPa Calm   4.8 km/h 96 % 3.3 mm 0 W/m2
01:00 13.2 °C 12.7 °C 1007.0 hPa SE 1.6 km/h 4.8 km/h 97 % 3.6 mm 0 W/m2
01:10 13.2 °C 12.7 °C 1006.7 hPa Calm   6.4 km/h 97 % 4.3 mm 0 W/m2
01:15 13.2 °C 12.7 °C 1006.7 hPa SE 1.6 km/h 6.4 km/h 97 % 4.3 mm 0 W/m2
01:20 13.2 °C 12.7 °C 1006.7 hPa SE 4.8 km/h 6.4 km/h 97 % 4.3 mm 0 W/m2
01:25 13.2 °C 12.7 °C 1006.7 hPa SE 3.2 km/h 6.4 km/h 97 % 4.1 mm 0 W/m2
01:30 13.2 °C 12.7 °C 1006.7 hPa SE 1.6 km/h 6.4 km/h 97 % 4.3 mm 0 W/m2
01:35 13.2 °C 12.7 °C 1006.7 hPa Calm   6.4 km/h 97 % 4.1 mm 0 W/m2
01:40 13.2 °C 12.7 °C 1006.7 hPa Calm   4.8 km/h 97 % 3.8 mm 0 W/m2
01:45 13.2 °C 12.7 °C 1006.3 hPa Calm   6.4 km/h 97 % 3.6 mm 0 W/m2
01:50 13.1 °C 12.6 °C 1006.3 hPa Calm   6.4 km/h 97 % 3.3 mm 0 W/m2
01:55 13.1 °C 12.6 °C 1006.3 hPa Calm     97 % 3.6 mm 0 W/m2
02:00 13.1 °C 12.6 °C 1006.0 hPa Calm     97 % 3.3 mm 0 W/m2
02:05 13.0 °C 12.5 °C 1006.0 hPa Calm     97 % 2.3 mm 0 W/m2
02:10 12.9 °C 12.5 °C 1005.6 hPa Calm     97 % 2.0 mm 0 W/m2
02:15 12.9 °C 12.4 °C 1005.6 hPa Calm   1.6 km/h 97 % 2.0 mm 0 W/m2
02:20 12.9 °C 12.4 °C 1005.3 hPa Calm   6.4 km/h 97 % 1.8 mm 0 W/m2
02:25 12.9 °C 12.5 °C 1005.6 hPa Calm   6.4 km/h 97 % 1.5 mm 0 W/m2
02:30 13.1 °C 12.6 °C 1006.0 hPa Calm   4.8 km/h 97 % 1.0 mm 0 W/m2
02:35 13.1 °C 12.6 °C 1005.6 hPa Calm   4.8 km/h 97 % 0.8 mm 0 W/m2
02:40 13.1 °C 12.6 °C 1005.6 hPa Calm   4.8 km/h 97 % 1.0 mm 0 W/m2
02:45 13.1 °C 12.6 °C 1006.0 hPa SE 4.8 km/h 4.8 km/h 97 % 1.0 mm 0 W/m2
02:50 13.1 °C 12.6 °C 1006.3 hPa South 4.8 km/h 9.7 km/h 97 % 0.8 mm 0 W/m2
02:55 13.1 °C 12.6 °C 1006.3 hPa SSW 6.4 km/h 11.3 km/h 97 % 0.5 mm 0 W/m2
03:00 13.1 °C 12.6 °C 1006.3 hPa South 3.2 km/h 11.3 km/h 97 % 0.5 mm 0 W/m2
03:05 13.1 °C 12.6 °C 1006.3 hPa South 1.6 km/h 9.7 km/h 97 % 0.5 mm 0 W/m2
03:10 13.1 °C 12.6 °C 1006.3 hPa South 3.2 km/h 8.0 km/h 97 % 0.5 mm 0 W/m2
03:15 13.1 °C 12.6 °C 1006.0 hPa Calm   8.0 km/h 97 % 0.5 mm 0 W/m2
03:20 13.1 °C 12.6 °C 1006.0 hPa SSW 3.2 km/h 8.0 km/h 97 % 0.5 mm 0 W/m2
03:25 13.1 °C 12.6 °C 1005.6 hPa SW 4.8 km/h 6.4 km/h 97 % 0.5 mm 0 W/m2
03:30 13.1 °C 12.6 °C 1005.6 hPa WSW 1.6 km/h 6.4 km/h 97 % 0.5 mm 0 W/m2
03:35 13.0 °C 12.5 °C 1005.6 hPa Calm   6.4 km/h 97 % 0.5 mm 0 W/m2
03:45 12.9 °C 12.6 °C 1005.6 hPa WSW 3.2 km/h 6.4 km/h 98 % 0.0 mm 0 W/m2
03:50 12.9 °C 12.6 °C 1005.6 hPa WSW 1.6 km/h 6.4 km/h 98 % 0.0 mm 0 W/m2
03:55 12.9 °C 12.6 °C 1005.6 hPa Calm   6.4 km/h 98 % 0.0 mm 0 W/m2
04:00 12.8 °C 12.5 °C 1005.6 hPa WSW 1.6 km/h 6.4 km/h 98 % 0.0 mm 0 W/m2
04:05 12.9 °C 12.6 °C 1005.6 hPa Calm   11.3 km/h 98 % 0.0 mm 0 W/m2
04:10 12.9 °C 12.6 °C 1006.0 hPa West 1.6 km/h 11.3 km/h 98 % 0.0 mm 0 W/m2
04:15 12.9 °C 12.6 °C 1006.0 hPa WNW 6.4 km/h 12.9 km/h 98 % 0.0 mm 0 W/m2
04:20 12.9 °C 12.6 °C 1005.6 hPa Calm   12.9 km/h 98 % 0.0 mm 0 W/m2
04:25 12.9 °C 12.6 °C 1006.0 hPa WSW 4.8 km/h 9.7 km/h 98 % 0.0 mm 0 W/m2
04:30 12.9 °C 12.6 °C 1006.0 hPa WSW 3.2 km/h 12.9 km/h 98 % 0.0 mm 0 W/m2
04:35 12.9 °C 12.6 °C 1006.0 hPa WSW 19.3 km/h 22.5 km/h 98 % 0.0 mm 0 W/m2
04:40 12.9 °C 12.6 °C 1006.0 hPa Calm   22.5 km/h 98 % 0.0 mm 0 W/m2
04:45 12.9 °C 12.6 °C 1006.0 hPa West 4.8 km/h 20.9 km/h 98 % 0.0 mm 0 W/m2
04:50 12.8 °C 12.5 °C 1006.3 hPa WNW 14.5 km/h 17.7 km/h 98 % 0.0 mm 0 W/m2
05:00 12.8 °C 12.5 °C 1006.3 hPa West 3.2 km/h 16.1 km/h 98 % 0.0 mm 0 W/m2
05:05 12.8 °C 12.5 °C 1006.3 hPa West 6.4 km/h 19.3 km/h 98 % 0.0 mm 0 W/m2
05:10 12.8 °C 12.5 °C 1006.7 hPa West 6.4 km/h 19.3 km/h 98 % 0.0 mm 0 W/m2
05:20 12.9 °C 12.6 °C 1006.7 hPa West 11.3 km/h 24.1 km/h 98 % 0.0 mm 0 W/m2
05:25 12.9 °C 12.6 °C 1006.7 hPa WNW 11.3 km/h 16.1 km/h 98 % 0.0 mm 0 W/m2
05:30 12.8 °C 12.5 °C 1006.7 hPa WNW 6.4 km/h 19.3 km/h 98 % 0.0 mm 0 W/m2
05:35 12.8 °C 12.5 °C 1006.7 hPa NW 19.3 km/h 19.3 km/h 98 % 0.0 mm 0 W/m2
05:40 12.8 °C 12.5 °C 1006.7 hPa West 4.8 km/h 19.3 km/h 98 % 0.0 mm 0 W/m2
05:45 12.8 °C 12.5 °C 1006.7 hPa WNW 3.2 km/h 19.3 km/h 98 % 0.0 mm 0 W/m2
05:50 12.8 °C 12.5 °C 1006.7 hPa WNW 6.4 km/h 14.5 km/h 98 % 0.0 mm 0 W/m2
05:55 12.8 °C 12.5 °C 1006.7 hPa WNW 3.2 km/h 16.1 km/h 98 % 0.0 mm 0 W/m2
06:00 12.8 °C 12.5 °C 1006.7 hPa West 4.8 km/h 20.9 km/h 98 % 0.0 mm 0 W/m2
06:05 12.8 °C 12.5 °C 1006.7 hPa WNW 9.7 km/h 20.9 km/h 98 % 0.0 mm 0 W/m2
06:10 12.8 °C 12.5 °C 1006.7 hPa WNW 12.9 km/h 20.9 km/h 98 % 0.0 mm 0 W/m2
06:15 12.8 °C 12.5 °C 1006.7 hPa WNW 11.3 km/h 22.5 km/h 98 % 0.0 mm 0 W/m2
06:20 12.7 °C 12.4 °C 1006.7 hPa West 9.7 km/h 22.5 km/h 98 % 0.0 mm 0 W/m2
06:25 12.7 °C 12.4 °C 1006.7 hPa West 11.3 km/h 20.9 km/h 98 % 0.0 mm 0 W/m2
06:30 12.6 °C 12.3 °C 1006.7 hPa West 17.7 km/h 19.3 km/h 98 % 0.0 mm 0 W/m2
06:35 12.6 °C 12.3 °C 1006.7 hPa West 20.9 km/h 29.0 km/h 98 % 0.0 mm 0 W/m2
06:40 12.6 °C 12.3 °C 1006.7 hPa WSW 8.0 km/h 29.0 km/h 98 % 0.0 mm 0 W/m2
06:45 12.6 °C 12.3 °C 1007.0 hPa WNW 6.4 km/h 22.5 km/h 98 % 0.0 mm 0 W/m2
06:50 12.6 °C 12.2 °C 1007.0 hPa NW 12.9 km/h 22.5 km/h 98 % 0.0 mm 0 W/m2
06:55 12.6 °C 12.2 °C 1007.0 hPa NW 8.0 km/h 22.5 km/h 98 % 0.0 mm 0 W/m2
07:00 12.4 °C 12.1 °C 1007.0 hPa West 4.8 km/h 22.5 km/h 98 % 0.0 mm 5 W/m2
07:05 12.4 °C 12.1 °C 1007.3 hPa NW 3.2 km/h 22.5 km/h 98 % 0.0 mm 9 W/m2
07:10 12.4 °C 12.1 °C 1007.3 hPa West 4.8 km/h 20.9 km/h 98 % 0.0 mm 12 W/m2
07:15 12.5 °C 12.2 °C 1007.3 hPa West 14.5 km/h 19.3 km/h 98 % 0.0 mm 12 W/m2
07:20 12.6 °C 12.3 °C 1007.7 hPa WSW 3.2 km/h 19.3 km/h 98 % 0.0 mm 9 W/m2
07:25 12.7 °C 12.4 °C 1007.7 hPa WSW 6.4 km/h 19.3 km/h 98 % 0.0 mm 12 W/m2
07:30 12.7 °C 12.4 °C 1007.7 hPa WNW 6.4 km/h 19.3 km/h 98 % 0.0 mm 14 W/m2
07:35 12.7 °C 12.4 °C 1007.7 hPa WNW 6.4 km/h 17.7 km/h 98 % 0.0 mm 35 W/m2
07:40 12.7 °C 12.4 °C 1007.7 hPa West 3.2 km/h 25.7 km/h 98 % 0.0 mm 33 W/m2
07:45 12.7 °C 12.4 °C 1007.7 hPa WNW 4.8 km/h 25.7 km/h 98 % 0.0 mm 42 W/m2
07:50 12.7 °C 12.2 °C 1007.7 hPa WNW 6.4 km/h 22.5 km/h 97 % 0.0 mm 44 W/m2
07:55 12.7 °C 12.4 °C 1007.7 hPa West 4.8 km/h 24.1 km/h 98 % 0.0 mm 44 W/m2
08:00 12.7 °C 12.4 °C 1008.0 hPa West 9.7 km/h 24.1 km/h 98 % 0.0 mm 54 W/m2
08:05 12.7 °C 12.2 °C 1008.0 hPa WSW 14.5 km/h 20.9 km/h 97 % 0.0 mm 62 W/m2
08:10 12.7 °C 12.2 °C 1008.0 hPa WNW 12.9 km/h 24.1 km/h 97 % 0.0 mm 70 W/m2
08:15 12.7 °C 12.2 °C 1008.0 hPa West 12.9 km/h 24.1 km/h 97 % 0.0 mm 74 W/m2
08:20 12.7 °C 12.3 °C 1008.0 hPa West 9.7 km/h 20.9 km/h 97 % 0.0 mm 81 W/m2
08:25 12.7 °C 12.3 °C 1008.0 hPa West 6.4 km/h 20.9 km/h 97 % 0.0 mm 83 W/m2
08:30 12.7 °C 12.3 °C 1008.0 hPa West 16.1 km/h 27.4 km/h 97 % 0.0 mm 86 W/m2
08:35 12.8 °C 12.3 °C 1008.4 hPa WNW 17.7 km/h 27.4 km/h 97 % 0.0 mm 93 W/m2
08:40 12.8 °C 12.4 °C 1008.4 hPa West 12.9 km/h 27.4 km/h 97 % 0.0 mm 105 W/m2
08:45 12.8 °C 12.4 °C 1008.4 hPa WSW 9.7 km/h 19.3 km/h 97 % 0.0 mm 114 W/m2
08:50 12.8 °C 12.4 °C 1008.4 hPa West 16.1 km/h 19.3 km/h 97 % 0.0 mm 123 W/m2
08:55 12.9 °C 12.4 °C 1008.4 hPa NW 6.4 km/h 19.3 km/h 97 % 0.0 mm 132 W/m2
09:00 12.9 °C 12.5 °C 1008.7 hPa West 11.3 km/h 19.3 km/h 97 % 0.0 mm 174 W/m2
09:05 13.0 °C 12.4 °C 1008.7 hPa West 3.2 km/h 22.5 km/h 96 % 0.0 mm 195 W/m2
09:10 13.1 °C 12.4 °C 1008.7 hPa West 6.4 km/h 22.5 km/h 96 % 0.0 mm 171 W/m2
09:15 13.1 °C 12.5 °C 1008.7 hPa West 6.4 km/h 22.5 km/h 96 % 0.0 mm 176 W/m2
09:20 13.2 °C 12.5 °C 1008.7 hPa West 8.0 km/h 22.5 km/h 96 % 0.0 mm 188 W/m2
09:25 13.3 °C 12.7 °C 1008.7 hPa WNW 4.8 km/h 19.3 km/h 96 % 0.0 mm 237 W/m2
09:30 13.5 °C 12.9 °C 1008.7 hPa WNW 4.8 km/h 19.3 km/h 96 % 0.0 mm 369 W/m2
09:35 13.7 °C 12.9 °C 1009.0 hPa West 4.8 km/h 17.7 km/h 95 % 0.0 mm 329 W/m2
09:40 13.8 °C 13.0 °C 1009.0 hPa WNW 9.7 km/h 17.7 km/h 95 % 0.0 mm 415 W/m2
09:45 14.1 °C 13.2 °C 1009.0 hPa West 16.1 km/h 17.7 km/h 94 % 0.0 mm 290 W/m2
09:50 13.9 °C 12.8 °C 1009.0 hPa West 11.3 km/h 19.3 km/h 93 % 0.0 mm 318 W/m2
09:55 13.9 °C 12.6 °C 1009.4 hPa WNW 14.5 km/h 20.9 km/h 92 % 0.0 mm 339 W/m2
10:00 13.9 °C 12.7 °C 1009.0 hPa WSW 8.0 km/h 20.9 km/h 92 % 0.0 mm 376 W/m2
10:05 14.0 °C 12.7 °C 1009.0 hPa WSW 6.4 km/h 19.3 km/h 92 % 0.0 mm 309 W/m2
10:10 14.1 °C 12.8 °C 1009.4 hPa NW 9.7 km/h 19.3 km/h 92 % 0.0 mm 269 W/m2
10:15 14.1 °C 12.6 °C 1009.4 hPa WNW 16.1 km/h 22.5 km/h 91 % 0.0 mm 311 W/m2
10:20 13.9 °C 12.7 °C 1009.4 hPa West 12.9 km/h 22.5 km/h 92 % 0.0 mm 348 W/m2
10:25 14.1 °C 12.8 °C 1009.4 hPa West 4.8 km/h 20.9 km/h 92 % 0.0 mm 366 W/m2
10:30 14.3 °C 13.0 °C 1009.4 hPa West 4.8 km/h 20.9 km/h 92 % 0.0 mm 387 W/m2
10:35 14.4 °C 13.1 °C 1009.7 hPa West 1.6 km/h 20.9 km/h 92 % 0.0 mm 513 W/m2
10:40 14.8 °C 13.3 °C 1009.7 hPa NW 3.2 km/h 20.9 km/h 91 % 0.0 mm 738 W/m2
10:45 15.7 °C 14.4 °C 1009.7 hPa WSW 8.0 km/h 17.7 km/h 92 % 0.0 mm 661 W/m2
10:55 15.2 °C 13.2 °C 1009.7 hPa West 14.5 km/h 19.3 km/h 88 % 0.0 mm 446 W/m2
11:00 15.2 °C 13.2 °C 1009.7 hPa WSW 16.1 km/h 19.3 km/h 88 % 0.0 mm 605 W/m2
11:05 15.2 °C 13.2 °C 1009.7 hPa Calm   19.3 km/h 88 % 0.3 mm 584 W/m2
11:10 15.4 °C 13.5 °C 1010.0 hPa WSW 4.8 km/h 17.7 km/h 88 % 0.3 mm 589 W/m2
11:15 15.6 °C 13.8 °C 1010.0 hPa West 11.3 km/h 20.9 km/h 89 % 0.3 mm 524 W/m2
11:20 15.1 °C 12.7 °C 1010.0 hPa West 4.8 km/h 20.9 km/h 86 % 0.3 mm 459 W/m2
11:25 14.8 °C 12.9 °C 1010.0 hPa WSW 16.1 km/h 22.5 km/h 88 % 0.3 mm 471 W/m2
11:30 14.9 °C 13.1 °C 1010.0 hPa WSW 9.7 km/h 22.5 km/h 89 % 0.3 mm 559 W/m2
11:35 15.2 °C 13.4 °C 1010.0 hPa West 6.4 km/h 20.9 km/h 89 % 0.3 mm 691 W/m2
11:40 15.5 °C 13.5 °C 1010.0 hPa SW 11.3 km/h 20.9 km/h 88 % 0.3 mm 475 W/m2
11:45 15.4 °C 13.2 °C 1010.0 hPa West 8.0 km/h 20.9 km/h 87 % 0.3 mm 853 W/m2
11:50 15.9 °C 14.0 °C 1010.0 hPa West 8.0 km/h 20.9 km/h 88 % 0.3 mm 480 W/m2
11:55 15.4 °C 13.3 °C 1010.0 hPa WNW 4.8 km/h 17.7 km/h 87 % 0.3 mm 545 W/m2
12:00 15.6 °C 13.4 °C 1010.4 hPa West 6.4 km/h 17.7 km/h 87 % 0.3 mm 496 W/m2
12:05 15.4 °C 13.3 °C 1010.0 hPa NW 11.3 km/h 14.5 km/h 87 % 0.0 mm 591 W/m2
12:10 15.5 °C 13.2 °C 1010.0 hPa West 4.8 km/h 20.9 km/h 86 % 0.0 mm 1014 W/m2
12:15 15.4 °C 12.9 °C 1010.4 hPa WSW 6.4 km/h 20.9 km/h 85 % 0.0 mm 248 W/m2
12:20 14.9 °C 12.8 °C 1010.4 hPa West 9.7 km/h 17.7 km/h 87 % 0.0 mm 264 W/m2
12:25 14.7 °C 12.6 °C 1010.4 hPa West 16.1 km/h 19.3 km/h 87 % 0.0 mm 345 W/m2
12:30 14.8 °C 12.8 °C 1010.4 hPa West 11.3 km/h 19.3 km/h 88 % 0.0 mm 359 W/m2
12:35 14.9 °C 12.9 °C 1010.4 hPa WSW 4.8 km/h 20.9 km/h 88 % 0.0 mm 309 W/m2
12:40 14.7 °C 12.6 °C 1010.0 hPa SW 6.4 km/h 20.9 km/h 87 % 0.0 mm 232 W/m2
12:45 14.7 °C 12.5 °C 1010.4 hPa WSW 6.4 km/h 20.9 km/h 87 % 0.0 mm 309 W/m2
12:50 15.4 °C 13.5 °C 1010.4 hPa West 1.6 km/h 14.5 km/h 88 % 0.0 mm 436 W/m2
12:55 15.4 °C 13.1 °C 1010.4 hPa West 1.6 km/h 17.7 km/h 86 % 0.0 mm 431 W/m2
13:00 15.8 °C 13.6 °C 1010.4 hPa SW 6.4 km/h 17.7 km/h 87 % 0.0 mm 789 W/m2
13:05 15.7 °C 13.0 °C 1010.4 hPa WSW 11.3 km/h 17.7 km/h 84 % 0.0 mm 206 W/m2
13:10 14.8 °C 12.5 °C 1010.7 hPa West 1.6 km/h 17.7 km/h 86 % 0.0 mm 204 W/m2
13:15 14.7 °C 12.5 °C 1010.7 hPa SW 8.0 km/h 20.9 km/h 87 % 0.0 mm 355 W/m2
13:20 14.9 °C 12.8 °C 1010.7 hPa WNW 6.4 km/h 20.9 km/h 87 % 0.0 mm 425 W/m2
13:30 16.1 °C 13.5 °C 1010.7 hPa WSW 8.0 km/h 20.9 km/h 85 % 0.0 mm 884 W/m2
13:35 16.1 °C 13.4 °C 1010.7 hPa WSW 12.9 km/h 20.9 km/h 84 % 0.0 mm 882 W/m2
13:40 16.2 °C 13.6 °C 1010.7 hPa West 6.4 km/h 17.7 km/h 85 % 0.0 mm 888 W/m2
13:45 16.6 °C 14.1 °C 1010.7 hPa WSW 11.3 km/h 17.7 km/h 85 % 0.0 mm 886 W/m2
13:50 16.4 °C 13.9 °C 1011.1 hPa SW 6.4 km/h 17.7 km/h 85 % 0.0 mm 893 W/m2
13:55 16.6 °C 13.7 °C 1011.1 hPa West 19.3 km/h 20.9 km/h 83 % 0.0 mm 914 W/m2
14:00 16.4 °C 13.7 °C 1011.1 hPa West 4.8 km/h 20.9 km/h 84 % 0.0 mm 940 W/m2
14:05 17.1 °C 14.2 °C 1011.1 hPa WSW 4.8 km/h 20.9 km/h 83 % 0.0 mm 942 W/m2
14:10 17.1 °C 14.0 °C 1011.1 hPa SW 6.4 km/h 20.9 km/h 82 % 0.0 mm 928 W/m2
14:15 17.1 °C 14.0 °C 1011.4 hPa WSW 6.4 km/h 20.9 km/h 82 % 0.0 mm 914 W/m2
14:20 16.6 °C 13.7 °C 1011.4 hPa WSW 6.4 km/h 24.1 km/h 83 % 0.0 mm 898 W/m2
14:25 16.3 °C 13.3 °C 1011.4 hPa WNW 9.7 km/h 25.7 km/h 82 % 0.0 mm 896 W/m2
14:30 16.7 °C 13.6 °C 1011.4 hPa WSW 4.8 km/h 25.7 km/h 82 % 0.0 mm 902 W/m2
14:35 17.2 °C 14.1 °C 1011.4 hPa West 8.0 km/h 22.5 km/h 82 % 0.0 mm 916 W/m2
14:40 17.7 °C 14.8 °C 1011.4 hPa WNW 6.4 km/h 22.5 km/h 83 % 0.0 mm 1007 W/m2
14:45 16.9 °C 13.4 °C 1011.7 hPa West 19.3 km/h 24.1 km/h 80 % 0.0 mm 506 W/m2
14:50 16.1 °C 13.0 °C 1011.7 hPa SW 9.7 km/h 24.1 km/h 82 % 0.0 mm 413 W/m2
14:55 16.2 °C 13.6 °C 1011.7 hPa West 14.5 km/h 22.5 km/h 85 % 0.0 mm 441 W/m2
15:00 16.6 °C 14.0 °C 1012.1 hPa West 9.7 km/h 19.3 km/h 85 % 0.0 mm 457 W/m2
15:05 16.3 °C 13.8 °C 1012.1 hPa West 8.0 km/h 19.3 km/h 85 % 0.0 mm 397 W/m2
15:10 15.8 °C 12.9 °C 1012.1 hPa West 9.7 km/h 20.9 km/h 83 % 0.0 mm 260 W/m2
15:15 15.4 °C 12.9 °C 1012.1 hPa WSW 9.7 km/h 20.9 km/h 85 % 0.0 mm 244 W/m2
15:20 15.2 °C 12.7 °C 1012.1 hPa NW 6.4 km/h 19.3 km/h 85 % 0.0 mm 304 W/m2
15:25 15.4 °C 13.1 °C 1012.4 hPa West 12.9 km/h 22.5 km/h 86 % 0.0 mm 346 W/m2
15:30 15.4 °C 12.9 °C 1012.4 hPa West 19.3 km/h 22.5 km/h 85 % 0.0 mm 360 W/m2
15:35 15.4 °C 13.1 °C 1012.4 hPa West 16.1 km/h 24.1 km/h 86 % 0.0 mm 357 W/m2
15:40 15.3 °C 13.0 °C 1012.4 hPa West 6.4 km/h 25.7 km/h 86 % 0.0 mm 406 W/m2
15:45 15.9 °C 13.6 °C 1012.4 hPa WNW 11.3 km/h 29.0 km/h 86 % 0.0 mm 424 W/m2
15:50 16.6 °C 13.9 °C 1012.8 hPa WSW 9.7 km/h 29.0 km/h 84 % 0.0 mm 1007 W/m2
15:55 16.7 °C 13.6 °C 1012.4 hPa West 19.3 km/h 29.0 km/h 82 % 0.0 mm 919 W/m2
16:00 16.7 °C 13.4 °C 1012.8 hPa WSW 19.3 km/h 29.0 km/h 81 % 0.0 mm 939 W/m2
16:05 16.2 °C 13.0 °C 1012.8 hPa West 11.3 km/h 29.0 km/h 81 % 0.0 mm 475 W/m2
16:10 15.8 °C 12.8 °C 1012.8 hPa West 12.9 km/h 29.0 km/h 82 % 0.0 mm 360 W/m2
16:15 16.2 °C 13.3 °C 1012.8 hPa WNW 20.9 km/h 24.1 km/h 83 % 0.0 mm 621 W/m2
16:20 16.4 °C 13.3 °C 1012.8 hPa WNW 11.3 km/h 27.4 km/h 82 % 0.0 mm 476 W/m2
16:25 16.2 °C 13.1 °C 1012.8 hPa WNW 9.7 km/h 27.4 km/h 82 % 0.0 mm 969 W/m2
16:30 16.5 °C 13.2 °C 1012.8 hPa WNW 9.7 km/h 30.6 km/h 81 % 0.0 mm 749 W/m2
16:35 16.4 °C 13.4 °C 1012.8 hPa WNW 14.5 km/h 30.6 km/h 82 % 0.0 mm 724 W/m2
16:40 16.4 °C 13.1 °C 1012.8 hPa NW 11.3 km/h 24.1 km/h 81 % 0.0 mm 707 W/m2
16:45 16.5 °C 13.2 °C 1012.8 hPa West 20.9 km/h 24.1 km/h 81 % 0.0 mm 700 W/m2
16:50 16.3 °C 13.6 °C 1013.1 hPa WNW 12.9 km/h 27.4 km/h 84 % 0.0 mm 693 W/m2
16:55 16.2 °C 13.1 °C 1013.1 hPa West 4.8 km/h 27.4 km/h 82 % 0.0 mm 216 W/m2
17:00 16.2 °C 13.8 °C 1013.1 hPa West 11.3 km/h 27.4 km/h 86 % 0.0 mm 320 W/m2
17:05 15.7 °C 13.2 °C 1013.1 hPa West 12.9 km/h 24.1 km/h 85 % 0.0 mm 851 W/m2
17:10 16.2 °C 13.5 °C 1013.1 hPa West 16.1 km/h 24.1 km/h 84 % 0.0 mm 671 W/m2
17:15 15.9 °C 12.8 °C 1013.1 hPa WNW 12.9 km/h 30.6 km/h 82 % 0.0 mm 628 W/m2
17:20 15.6 °C 12.5 °C 1013.1 hPa WNW 19.3 km/h 30.6 km/h 82 % 0.0 mm 603 W/m2
17:25 15.7 °C 13.0 °C 1013.1 hPa SW 1.6 km/h 27.4 km/h 84 % 0.0 mm 589 W/m2
17:30 16.1 °C 13.2 °C 1013.1 hPa West 3.2 km/h 25.7 km/h 83 % 0.0 mm 580 W/m2
17:35 16.2 °C 13.3 °C 1013.4 hPa West 12.9 km/h 22.5 km/h 83 % 0.0 mm 566 W/m2
17:40 16.2 °C 13.3 °C 1013.4 hPa West 8.0 km/h 27.4 km/h 83 % 0.0 mm 552 W/m2
17:45 16.0 °C 12.9 °C 1013.4 hPa WSW 6.4 km/h 27.4 km/h 82 % 0.0 mm 541 W/m2
17:50 15.8 °C 12.5 °C 1013.4 hPa West 8.0 km/h 25.7 km/h 81 % 0.0 mm 527 W/m2
17:55 15.7 °C 12.8 °C 1013.4 hPa West 4.8 km/h 25.7 km/h 83 % 0.0 mm 512 W/m2
18:00 15.6 °C 12.5 °C 1013.4 hPa West 19.3 km/h 29.0 km/h 82 % 0.0 mm 497 W/m2
18:05 15.5 °C 12.6 °C 1013.8 hPa West 9.7 km/h 29.0 km/h 83 % 0.0 mm 480 W/m2
18:10 15.4 °C 12.6 °C 1013.4 hPa West 9.7 km/h 25.7 km/h 83 % 0.0 mm 469 W/m2
18:15 15.7 °C 13.2 °C 1013.8 hPa WSW 9.7 km/h 27.4 km/h 85 % 0.0 mm 455 W/m2
18:20 15.6 °C 12.7 °C 1013.8 hPa West 11.3 km/h 27.4 km/h 83 % 0.0 mm 439 W/m2
18:25 15.7 °C 12.8 °C 1013.8 hPa West 11.3 km/h 24.1 km/h 83 % 0.0 mm 427 W/m2
18:30 15.7 °C 13.0 °C 1013.8 hPa West 4.8 km/h 24.1 km/h 84 % 0.0 mm 413 W/m2
18:35 15.8 °C 12.9 °C 1013.8 hPa West 12.9 km/h 20.9 km/h 83 % 0.0 mm 399 W/m2
18:40 15.6 °C 12.7 °C 1014.1 hPa West 17.7 km/h 20.9 km/h 83 % 0.0 mm 383 W/m2
18:45 15.6 °C 12.5 °C 1014.1 hPa West 11.3 km/h 29.0 km/h 82 % 0.0 mm 369 W/m2
18:50 15.3 °C 12.5 °C 1014.1 hPa WNW 12.9 km/h 29.0 km/h 83 % 0.0 mm 353 W/m2
18:55 15.4 °C 12.9 °C 1014.1 hPa West 19.3 km/h 27.4 km/h 85 % 0.0 mm 341 W/m2
19:00 15.0 °C 12.3 °C 1014.1 hPa SW 11.3 km/h 29.0 km/h 84 % 0.0 mm 325 W/m2
19:05 15.0 °C 12.3 °C 1014.1 hPa West 19.3 km/h 29.0 km/h 84 % 0.0 mm 309 W/m2
19:10 14.9 °C 12.4 °C 1014.1 hPa WNW 12.9 km/h 27.4 km/h 85 % 0.0 mm 294 W/m2
19:15 14.9 °C 12.4 °C 1014.1 hPa WNW 11.3 km/h 27.4 km/h 85 % 0.0 mm 279 W/m2
19:20 14.7 °C 12.2 °C 1014.1 hPa West 12.9 km/h 29.0 km/h 85 % 0.0 mm 265 W/m2
19:25 14.8 °C 12.3 °C 1014.1 hPa West 9.7 km/h 29.0 km/h 85 % 0.0 mm 251 W/m2
19:30 14.8 °C 12.5 °C 1014.4 hPa NW 9.7 km/h 22.5 km/h 86 % 0.0 mm 239 W/m2
19:35 14.7 °C 12.4 °C 1014.4 hPa SW 12.9 km/h 24.1 km/h 86 % 0.0 mm 223 W/m2
19:40 14.7 °C 12.3 °C 1014.4 hPa WNW 12.9 km/h 24.1 km/h 86 % 0.0 mm 209 W/m2
19:45 14.6 °C 12.2 °C 1014.4 hPa NW 11.3 km/h 24.1 km/h 86 % 0.0 mm 193 W/m2
19:50 14.4 °C 12.1 °C 1014.4 hPa WSW 4.8 km/h 24.1 km/h 86 % 0.0 mm 179 W/m2
19:55 14.4 °C 12.3 °C 1014.8 hPa West 17.7 km/h 24.1 km/h 87 % 0.0 mm 162 W/m2
20:00 14.2 °C 12.1 °C 1014.4 hPa West 16.1 km/h 25.7 km/h 87 % 0.0 mm 146 W/m2
20:05 14.1 °C 12.0 °C 1014.4 hPa WNW 4.8 km/h 30.6 km/h 87 % 0.0 mm 142 W/m2
20:10 14.0 °C 12.0 °C 1014.4 hPa SW 6.4 km/h 30.6 km/h 88 % 0.0 mm 120 W/m2
20:15 13.9 °C 12.0 °C 1014.8 hPa West 20.9 km/h 27.4 km/h 88 % 0.0 mm 93 W/m2
20:20 13.8 °C 11.9 °C 1014.8 hPa West 9.7 km/h 27.4 km/h 88 % 0.0 mm 79 W/m2
20:25 13.7 °C 11.9 °C 1014.8 hPa WNW 12.9 km/h 25.7 km/h 89 % 0.0 mm 33 W/m2
20:30 13.6 °C 11.8 °C 1014.8 hPa West 19.3 km/h 24.1 km/h 89 % 0.0 mm 30 W/m2
20:35 13.5 °C 11.7 °C 1014.8 hPa West 4.8 km/h 24.1 km/h 89 % 0.0 mm 28 W/m2
20:40 13.4 °C 11.6 °C 1014.8 hPa West 8.0 km/h 25.7 km/h 89 % 0.0 mm 25 W/m2
20:45 13.3 °C 11.6 °C 1015.1 hPa West 19.3 km/h 27.4 km/h 89 % 0.0 mm 23 W/m2
20:50 13.2 °C 11.4 °C 1015.1 hPa WSW 8.0 km/h 27.4 km/h 89 % 0.0 mm 21 W/m2
20:55 13.2 °C 11.6 °C 1015.1 hPa West 12.9 km/h 22.5 km/h 90 % 0.0 mm 18 W/m2
21:00 13.1 °C 11.5 °C 1015.1 hPa WNW 9.7 km/h 22.5 km/h 90 % 0.0 mm 14 W/m2
21:05 13.1 °C 11.5 °C 1015.1 hPa WSW 11.3 km/h 22.5 km/h 90 % 0.0 mm 12 W/m2
21:10 13.0 °C 11.4 °C 1015.5 hPa WNW 11.3 km/h 20.9 km/h 90 % 0.0 mm 11 W/m2
21:15 12.9 °C 11.5 °C 1015.5 hPa WNW 8.0 km/h 20.9 km/h 91 % 0.0 mm 11 W/m2
21:20 12.9 °C 11.5 °C 1015.5 hPa NNW 9.7 km/h 20.9 km/h 91 % 0.0 mm 5 W/m2
21:25 12.9 °C 11.5 °C 1015.5 hPa NNW 8.0 km/h 25.7 km/h 91 % 0.0 mm 0 W/m2
21:30 12.9 °C 11.5 °C 1015.8 hPa NW 9.7 km/h 25.7 km/h 91 % 0.0 mm 0 W/m2
21:35 12.8 °C 11.4 °C 1015.8 hPa West 9.7 km/h 20.9 km/h 91 % 0.0 mm 0 W/m2
21:40 12.8 °C 11.3 °C 1015.8 hPa NNW 8.0 km/h 19.3 km/h 91 % 0.0 mm 0 W/m2
21:45 12.6 °C 11.2 °C 1015.8 hPa NW 16.1 km/h 19.3 km/h 91 % 0.0 mm 0 W/m2
21:50 12.6 °C 11.2 °C 1015.8 hPa WNW 19.3 km/h 20.9 km/h 91 % 0.0 mm 0 W/m2
21:55 12.6 °C 11.2 °C 1015.8 hPa West 16.1 km/h 20.9 km/h 91 % 0.0 mm 0 W/m2
22:00 12.7 °C 11.4 °C 1016.1 hPa WNW 8.0 km/h 20.9 km/h 92 % 0.0 mm 0 W/m2
22:05 12.7 °C 11.4 °C 1016.1 hPa WNW 8.0 km/h 24.1 km/h 92 % 0.0 mm 0 W/m2
22:10 12.7 °C 11.4 °C 1016.1 hPa WNW 6.4 km/h 24.1 km/h 92 % 0.0 mm 0 W/m2
22:15 12.7 °C 11.5 °C 1016.1 hPa West 9.7 km/h 20.9 km/h 92 % 0.0 mm 0 W/m2
22:20 12.7 °C 11.5 °C 1016.1 hPa WNW 8.0 km/h 20.9 km/h 92 % 0.0 mm 0 W/m2
22:25 12.7 °C 11.4 °C 1016.5 hPa WNW 11.3 km/h 19.3 km/h 92 % 0.0 mm 0 W/m2
22:30 12.7 °C 11.4 °C 1016.5 hPa NNW 9.7 km/h 22.5 km/h 92 % 0.0 mm 0 W/m2
22:35 12.8 °C 11.6 °C 1016.5 hPa NW 11.3 km/h 22.5 km/h 92 % 0.0 mm 0 W/m2
22:40 12.9 °C 11.6 °C 1016.5 hPa West 16.1 km/h 20.9 km/h 92 % 0.0 mm 0 W/m2
22:45 12.9 °C 11.6 °C 1016.5 hPa WNW 17.7 km/h 22.5 km/h 92 % 0.0 mm 0 W/m2
22:50 12.8 °C 11.6 °C 1016.8 hPa WNW 12.9 km/h 22.5 km/h 92 % 0.0 mm 0 W/m2
22:55 12.8 °C 11.5 °C 1016.8 hPa SW 12.9 km/h 20.9 km/h 92 % 0.0 mm 0 W/m2
23:00 12.7 °C 11.3 °C 1016.8 hPa NW 4.8 km/h 17.7 km/h 91 % 0.0 mm 0 W/m2
23:05 12.6 °C 11.3 °C 1016.8 hPa West 4.8 km/h 17.7 km/h 92 % 0.0 mm 0 W/m2
23:10 12.6 °C 11.3 °C 1016.8 hPa WNW 1.6 km/h 17.7 km/h 92 % 0.0 mm 0 W/m2
23:15 12.6 °C 11.3 °C 1016.8 hPa WNW 8.0 km/h 16.1 km/h 92 % 0.0 mm 0 W/m2
23:20 12.7 °C 11.4 °C 1016.8 hPa WNW 4.8 km/h 14.5 km/h 92 % 0.0 mm 0 W/m2
23:25 12.8 °C 11.5 °C 1017.2 hPa NW 9.7 km/h 14.5 km/h 92 % 0.0 mm 0 W/m2
23:30 12.8 °C 11.5 °C 1016.8 hPa West 6.4 km/h 16.1 km/h 92 % 0.0 mm 0 W/m2
23:35 12.8 °C 11.6 °C 1017.2 hPa NW 8.0 km/h 20.9 km/h 92 % 0.0 mm 0 W/m2
23:40 12.9 °C 11.6 °C 1017.2 hPa NW 9.7 km/h 20.9 km/h 92 % 0.0 mm 0 W/m2
23:45 12.9 °C 11.5 °C 1017.2 hPa WNW 11.3 km/h 19.3 km/h 91 % 0.0 mm 0 W/m2
23:50 12.9 °C 11.5 °C 1017.2 hPa WNW 3.2 km/h 20.9 km/h 91 % 0.0 mm 0 W/m2
23:55 12.9 °C 11.5 °C 1017.2 hPa WNW 3.2 km/h 24.1 km/h 91 % 0.0 mm 0 W/m2
Avec l'autorisation de Weather Underground - 1.75 mb